Location: La Fredeussais
(48.1780°N, 1.3980°W)
Time: 19:01:14
(UTC+00:00)

PRISM - Pass Details

Date: 31 October 2021
Orbit: 561 x 584 km, 98.2° (Epoch: 03 December)

Event Time Altitude Azimuth Distance (km) Brightness Sun altitude
Rises 03:54:00 0° 17° (NNE) 2,795 ? -29.6°
Reaches altitude 10° 03:56:12 10° 21° (NNE) 1,887 ? -29.2°
Enters shadow 03:58:13 27° 31° (NNE) 1,108 ? -28.9°
